Regional Weather Roundup
Issued by NWS

Home | Current Version | Previous Version | Graphics & Text | Print | Product List | Glossary On
Versions: 1 2 3 4 5 6 7 8 9 10 11 12 13 14 15 16 17 18 19 20 21 22 23 24 25 26 27 28 29 30 31 32 33 34 35 36 37 38 39 40 41 42 43 44 45 46 47 48 49 50
000
ASUS43 KOAX 271810
RWRNE

WEATHER ROUNDUP FOR NEBRASKA
NATIONAL WEATHER SERVICE OMAHA NE
1200 PM CST TUE JAN 27 2015

NOTES: SATELLITE DATA IS BEING USED TO AUGMENT CLOUD COVER ABOVE
       12000 FEET.
       "FAIR" INDICATES FEW OR NO CLOUDS BELOW 12,000 FEET WITH NO
       SIGNIFICANT WEATHER AND/OR OBSTRUCTIONS TO VISIBILITY.

  * THESE STATIONS DO NOT REPORT WEATHER SUCH AS RAIN...SNOW OR FOG.

NEZ001>004-019>022-054>056-271900-
NEBRASKA PANHANDLE

CITY           SKY/WX    TMP DP  RH WIND       PRES   REMARKS
SCOTTSBLUFF      N/A    N/A N/A N/A MISG      30.07F
ALLIANCE       SUNNY     59  32  36 W7        30.06S
6HR MIN TEMP:  28; 6HR MAX TEMP:  59;

CHADRON        SUNNY     59  31  34 W7        30.03F
6HR MIN TEMP:  31; 6HR MAX TEMP:  59;

KIMBALL        SUNNY     63  25  23 W9        30.10S
SIDNEY         SUNNY     65  26  23 W7        30.10F
6HR MIN TEMP:  28; 6HR MAX TEMP:  65;

$$

NEZ057>060-069>072-079>082-271900-
SOUTHWEST NEBRASKA

CITY           SKY/WX    TMP DP  RH WIND       PRES   REMARKS
NORTH PLATTE   SUNNY     56  32  40 W10       30.04S
6HR MIN TEMP:  22; 6HR MAX TEMP:  56;

IMPERIAL       SUNNY     63  30  28 NW10      30.06S
6HR MIN TEMP:  29; 6HR MAX TEMP:  63;

LEXINGTON      SUNNY     55  34  46 NW3       30.02F
MCCOOK         SUNNY     57  32  38 W9        30.03F
6HR MIN TEMP:  31; 6HR MAX TEMP:  57;

OGALLALA       SUNNY     58  36  44 SW8       30.05F
$$

NEZ005>010-023>029-035>040-094-271900-
NORTH CENTRAL NEBRASKA

CITY           SKY/WX    TMP DP  RH WIND       PRES   REMARKS
VALENTINE      SUNNY     56  34  43 SW13      29.96F
6HR MIN TEMP:  29; 6HR MAX TEMP:  58;

AINSWORTH      SUNNY     60  32  35 W7        29.97F
BROKEN BOW     SUNNY     56  35  45 CALM      30.00F
6HR MIN TEMP:  27; 6HR MAX TEMP:  56;

O`NEILL        SUNNY     52  35  53 S16       29.99F
ORD            SUNNY     47  33  58 E5        30.01F
6HR MIN TEMP:  23; 6HR MAX TEMP:  47;

THEDFORD       SUNNY     64  34  32 SW7       30.00F
$$

NEZ041-046>049-061>064-073>077-083>087-271900-
SOUTH CENTRAL NEBRASKA

CITY           SKY/WX    TMP DP  RH WIND       PRES   REMARKS
GRAND ISLAND     N/A    N/A N/A N/A MISG      30.04F
AURORA         SUNNY     53  34  47 SE15      30.05F
HASTINGS       SUNNY     55  31  39 S10       30.03F
6HR MIN TEMP:  32; 6HR MAX TEMP:  55;

HEBRON         SUNNY     56  31  39 S10       30.08F
HOLDREGE       SUNNY     55  31  39 CALM      30.02F
KEARNEY *      SUNNY     54  34  47 S6        30.02F
YORK           SUNNY     50  34  53 S13       30.07F
$$

NEZ011>018-030>034-042>045-271900-
NORTHEAST NEBRASKA

CITY           SKY/WX    TMP DP  RH WIND       PRES   REMARKS
NORFOLK        SUNNY     49  35  58 SE15      30.05F
6HR MIN TEMP:  25; 6HR MAX TEMP:  49;

ALBION         SUNNY     49  34  56 S13       30.05F
BLAIR          SUNNY     46  34  62 SE8       30.10F
COLUMBUS *     SUNNY     50  34  53 SE10      30.09F
FREMONT        SUNNY     47  35  63 SE12      30.11F
TEKAMAH        SUNNY     45  36  70 SE12      30.12F
6HR MIN TEMP:  25; 6HR MAX TEMP:  45;

WAYNE          SUNNY     45  36  69 S13       30.09F
$$

NEZ050>053-065>068-078-088>093-271900-
SOUTHEAST NEBRASKA

CITY           SKY/WX    TMP DP  RH WIND       PRES   REMARKS
LINCOLN        SUNNY     50  34  54 SE10      30.11F
6HR MIN TEMP:  21; 6HR MAX TEMP:  50;

OMAHA EPPLEY   MOSUNNY   45  33  63 S10       30.13F
6HR MIN TEMP:  26; 6HR MAX TEMP:  45;

BEATRICE       SUNNY     52  34  51 SE12      30.10F
FALLS CITY     SUNNY     48  33  56 SE9       30.14F
6HR MIN TEMP:  26; 6HR MAX TEMP:  48;

NEBRASKA CITY  SUNNY     46  30  52 SE8       30.13F
PLATTSMOUTH    SUNNY     46  32  60 SE10      30.13F
$$

NEZ044-045-051>053-067-271900-
OMAHA AREA

CITY           SKY/WX    TMP DP  RH WIND       PRES   REMARKS
OMAHA EPPLEY   MOSUNNY   45  33  63 S10       30.13F
6HR MIN TEMP:  26; 6HR MAX TEMP:  45;

BLAIR          SUNNY     46  34  62 SE8       30.10F
FREMONT        SUNNY     47  35  63 SE12      30.11F
MILLARD        SUNNY     46  34  63 SE9       30.12F
OFFUTT AFB     SUNNY     47  34  61 SE8       30.12F
PLATTSMOUTH    SUNNY     46  32  60 SE10      30.13F
WAHOO          FAIR      47  32  55 S12       30.10F
$$



USA.gov is the U.S. government's official web portal to all federal, state and local government web resources and services.